Torna al catalogo

QIANFAN-3

AttivoComunicazioniPO
NORAD 60381·PAYLOAD·🇨🇳 China

Lanciato Aug 6, 2024 da Taiyuan Satellite Launch Center

Loading…

Prossimi Passaggi (prossime 24 ore)

TLE

AggiornatoSource: Space-Track

Epoca: Sep 14, 2026, 21:51 UTC

1 60381U 24140C   26257.91057620  .00000019  00000-0  10680-4 0  9990
2 60381  88.9643 270.5224 0015819 118.3306 241.9443 13.51022964104607

Traccia QIANFAN-3 in tempo reale con AllMySat

Download on the App Store